View from above orbital plane
|
View from above satellite
|
Ground track
|
The orbit data is extracted from the following two-line orbital elements,
1 41557U 16033B 22137.08269854 .00015703 00000-0 48025-3 0 9990
2 41557 97.3864 234.7473 0012948 128.3052 354.6025 15.33858333332573
Epoch (UTC): | 17 May 2022 01:59:05 |
Eccentricity: | 0.0012948 |
inclination: | 97.3864° |
perigee height: | 455 km |
apogee height: | 473 km |
right ascension of ascending node: | 234.7473° |
argument of perigee: | 128.3052° |
revolutions per day: | 15.33858333 |
mean anomaly at epoch: | 354.6025° |
orbit number at epoch: | 33257 |
The dashed part of the orbit path shows where the satellite is in the earth's shadow,
|
|